Theta_e
318 317 317 316 315 315 315 316 317 317 318 318 319 320 320 320 320 320 320 321 321 320 320 320 321 320 323 315 312 335 340 336 322 317 315 313 311 312 310 313 314 313 316 316 315 315 323
319 318 317 316 316 315 314 315 317 317 318 318 319 319 319 319 319 319 319 319 318 318 319 322 321 320 321 308 323 331 323 322 318 316 315 315 313 315 312 312 312 315 315 315 315 316 319
319 318 317 317 317 315 314 315 316 317 318 318 319 319 319 319 318 318 318 317 317 318 321 321 321 323 317 312 324 329 326 320 319 316 313 317 317 314 314 311 315 313 310 314 318 319 316
320 319 318 317 317 316 315 315 316 317 318 318 318 318 318 318 318 318 318 317 316 319 321 321 323 324 314 321 327 325 322 317 318 317 315 317 318 315 314 315 312 310 312 309 317 320 323
320 319 318 317 317 316 315 316 316 317 317 318 318 317 317 317 317 317 316 316 318 321 320 322 324 322 311 320 320 322 319 315 314 315 316 316 316 313 313 309 308 309 306 309 312 321 322
320 320 319 318 317 315 315 315 316 317 317 318 318 317 316 316 317 316 314 315 319 320 322 323 321 315 315 313 317 320 320 319 314 313 313 314 313 309 309 308 301 306 306 309 310 317 321
320 320 319 318 317 316 315 315 316 316 317 317 318 317 316 316 316 314 315 318 313 314 314 310 311 310 311 315 315 316 320 318 315 313 308 312 307 304 307 309 309 308 308 308 311 317 318
320 319 319 319 318 317 315 315 316 316 316 317 317 316 316 315 315 314 318 310 307 308 305 313 312 312 314 315 309 313 320 314 312 306 310 306 304 308 309 308 307 307 307 308 310 312 318
319 319 318 318 317 316 316 315 316 316 316 316 316 315 315 315 314 315 315 309 312 313 308 308 310 310 310 313 310 312 318 316 310 307 306 304 306 309 307 306 304 306 306 308 307 309 315
319 319 318 317 316 315 316 316 316 316 316 316 315 315 314 313 313 314 312 312 313 317 303 306 309 311 309 311 308 316 319 315 310 307 307 305 308 305 305 304 306 303 308 307 306 306 302
319 318 317 316 315 315 315 315 316 317 317 316 315 315 314 312 315 312 311 313 314 315 294 307 309 316 311 309 312 311 319 315 310 306 306 303 304 303 303 304 307 304 307 307 307 306 307
319 318 317 316 315 315 314 314 315 316 316 315 315 315 313 315 318 315 315 312 316 301 292 304 308 307 306 309 309 311 312 315 314 309 308 306 309 307 307 308 309 310 307 307 307 306 300
319 318 317 316 315 314 313 313 315 315 315 315 315 314 313 317 314 316 314 310 300 294 303 303 304 306 307 305 306 308 308 308 306 302 303 306 305 308 308 305 309 308 306 299 297 297 296
317 317 316 316 315 314 313 313 314 315 315 315 313 310 313 316 316 315 310 304 294 298 299 305 304 305 303 306 306 306 306 305 308 307 305 302 299 305 308 307 306 306 306 300 294 296 299
316 316 316 316 315 314 313 313 314 314 313 313 309 318 316 317 320 318 304 297 297 299 303 301 305 303 303 305 305 305 305 305 307 309 303 302 300 308 309 310 309 306 303 308 303 304 299
317 316 316 315 314 314 313 313 314 314 314 312 317 315 315 320 321 311 301 296 299 301 304 304 301 304 302 304 304 305 306 310 306 308 311 307 301 306 308 310 310 308 310 302 303 296 295
316 316 315 315 314 313 313 314 314 314 313 309 315 309 313 320 316 306 297 299 301 303 305 302 302 302 304 304 306 305 306 311 313 311 312 308 306 305 307 306 305 307 305 306 306 305 298
315 315 314 315 314 314 313 314 314 313 310 307 313 303 315 317 303 304 299 301 300 303 307 304 305 304 304 305 306 307 306 310 315 312 307 311 310 303 304 309 309 309 308 306 301 301 304
315 315 315 314 314 313 313 313 313 312 308 313 308 307 316 317 300 300 303 302 304 303 303 303 303 306 307 305 306 309 309 314 315 315 312 312 308 301 303 308 311 308 308 308 308 308 303
313 314 314 314 314 313 313 314 313 312 309 311 307 300 308 310 312 305 301 300 300 306 305 305 305 307 307 305 310 308 308 311 313 314 313 316 311 306 300 304 308 305 306 308 308 303 303
310 313 314 314 314 313 314 314 313 311 309 312 307 302 308 300 304 306 306 303 300 301 306 307 303 304 306 303 306 307 310 310 311 311 314 315 305 306 306 306 307 307 307 307 306 307 303
309 311 314 314 314 314 314 314 313 310 308 309 304 303 311 310 307 306 303 304 302 303 305 304 303 304 308 305 306 305 307 308 307 311 311 313 305 306 303 304 305 304 306 308 307 307 307
310 310 313 314 314 314 314 314 313 310 309 309 313 316 312 304 308 305 305 304 304 307 308 309 308 308 306 308 311 314 316 315 313 311 308 307 307 304 298 303 303 299 305 307 310 311 311
311 310 312 314 314 314 314 314 313 312 309 314 314 312 305 303 305 305 305 307 306 308 307 311 313 311 314 319 319 318 316 314 313 314 315 307 306 306 300 302 293 306 315 313 311 311 316
311 310 312 314 314 314 314 314 313 312 311 317 316 313 306 302 307 307 307 307 309 311 309 312 313 317 320 317 310 308 307 308 309 312 313 314 309 304 299 298 301 306 312 310 309 310 318
311 311 312 314 314 314 315 314 313 312 311 315 315 317 313 306 306 308 308 308 310 310 311 312 317 321 319 313 307 300 298 301 301 307 315 312 314 306 304 296 293 309 313 317 315 305 317
310 310 311 313 314 315 315 315 313 313 311 313 313 317 314 305 311 311 309 308 309 310 311 313 314 316 318 309 303 301 300 306 299 299 304 306 307 303 302 300 303 314 315 317 303 306 317
310 310 311 312 314 315 315 315 314 313 312 313 311 317 313 308 312 312 310 310 311 311 310 312 313 315 313 308 306 306 305 307 304 307 305 303 302 303 305 300 297 315 313 306 312 316 320
310 310 310 311 312 314 315 314 313 313 310 311 309 316 316 311 311 314 315 315 312 311 311 318 315 314 315 312 312 311 306 308 305 301 312 304 310 307 307 308 313 313 312 315 314 310 313
Wind_Speed
10 10 9 8 7 6 7 8 8 9 9 11 14 16 17 18 19 19 21 20 19 19 18 13 8 5 8 8 6 8 11 10 11 11 13 13 13 13 13 12 10 12 8 4 3 5 5
12 12 11 9 7 6 5 7 8 9 9 10 13 15 17 19 20 21 21 19 18 17 15 9 5 5 7 7 4 10 13 13 11 12 12 10 9 7 7 9 15 11 9 6 5 8 6
14 13 12 10 8 7 7 6 7 8 9 10 12 14 17 20 21 22 23 20 18 15 11 3 6 5 7 5 2 9 12 12 9 8 11 8 3 10 4 9 8 6 11 8 7 6 7
14 14 12 11 9 8 8 7 7 8 9 10 12 14 18 20 22 23 24 19 17 10 5 4 6 6 4 4 2 9 10 7 7 7 4 4 4 5 9 3 8 12 12 12 8 7 3
15 13 13 11 10 9 8 8 7 7 8 10 11 14 17 21 23 25 25 20 11 3 4 4 8 6 3 4 6 10 10 6 9 8 5 3 6 4 7 13 12 13 13 17 8 9 4
16 15 14 13 12 10 9 8 8 7 7 9 11 13 16 20 22 24 25 10 6 4 7 6 4 6 6 5 3 6 8 7 10 12 10 9 8 9 11 11 14 15 18 9 11 13 11
18 17 16 15 14 12 11 9 8 7 6 8 10 13 16 19 22 22 17 3 5 7 5 9 7 8 4 1 5 8 9 10 10 14 13 12 11 12 14 12 10 13 10 15 11 7 12
19 18 17 16 15 13 11 10 8 7 6 7 9 12 16 20 21 17 9 6 6 6 11 13 13 10 10 5 4 8 10 13 10 13 11 9 13 5 1 6 9 9 13 13 8 5 13
21 20 19 17 16 13 12 10 9 7 6 6 8 11 15 20 17 6 6 8 6 4 8 3 5 6 5 11 8 12 16 11 12 11 14 14 2 8 10 8 10 12 13 12 13 9 9
23 21 20 18 16 14 13 11 10 8 7 6 6 9 13 23 4 7 2 6 9 4 7 9 7 6 8 7 8 6 15 10 7 9 7 10 9 9 11 13 11 13 12 10 9 11 13
25 23 21 19 18 16 14 12 10 9 7 5 6 7 9 9 8 6 7 10 6 5 7 5 7 6 6 10 12 9 9 8 8 8 8 7 9 14 13 10 10 12 4 14 13 13 16
26 25 22 20 19 17 14 13 11 9 8 5 7 6 9 5 5 6 9 11 5 8 5 6 5 7 11 10 7 9 10 5 3 5 5 1 1 6 12 5 9 6 8 8 8 13 16
26 26 24 22 20 17 15 13 11 10 8 6 8 7 6 5 5 8 9 6 7 8 3 6 4 4 8 12 11 11 14 13 10 9 11 9 12 9 6 11 9 9 9 9 12 14 15
25 27 22 20 21 18 15 13 12 10 8 7 8 8 5 5 6 7 5 7 9 1 3 3 2 4 10 13 11 10 12 13 6 8 3 5 10 13 11 13 8 16 13 11 10 12 14
22 26 26 22 20 19 16 14 13 11 8 6 7 5 4 3 3 4 7 10 6 1 4 5 5 10 8 9 7 9 7 10 12 10 5 6 7 5 5 5 9 9 11 9 13 11 10
20 28 25 23 19 17 16 15 13 11 9 5 4 4 3 2 4 6 8 13 5 3 4 3 6 5 11 12 12 10 9 3 8 5 5 2 4 3 8 5 7 11 5 8 10 13 16
11 28 23 21 20 17 17 16 14 12 9 7 6 5 6 4 7 6 10 10 6 3 4 3 1 3 1 8 8 10 5 7 2 6 7 4 5 9 5 10 5 8 12 9 7 8 10
13 20 23 22 19 18 17 17 14 12 8 6 3 6 5 5 7 4 8 6 1 5 4 3 4 3 1 2 6 6 8 5 2 4 6 2 4 6 6 6 3 7 11 4 8 10 9
2 20 20 21 20 18 18 17 15 13 14 3 4 4 5 4 7 8 5 9 4 6 5 3 2 2 0 2 3 9 10 5 3 2 2 4 3 7 11 9 6 2 2 3 3 4 10
4 9 22 23 20 19 19 17 16 12 10 5 4 6 5 6 2 6 7 8 10 7 8 5 4 3 3 5 1 9 12 5 4 6 3 3 1 7 10 9 5 5 3 5 5 7 9
8 6 18 22 18 18 19 18 15 12 10 5 4 2 4 7 9 8 5 2 11 7 9 6 7 8 3 5 8 8 10 11 5 6 3 4 5 5 5 6 7 9 10 9 9 11 13
8 7 15 19 20 19 19 18 15 12 9 5 4 3 4 4 3 11 8 10 9 8 6 11 10 9 8 5 1 9 9 6 3 5 2 0 4 5 10 5 7 10 12 13 13 13 12
12 9 10 21 20 20 19 18 16 15 14 2 2 1 5 7 7 9 10 9 6 3 9 5 11 8 10 6 2 8 6 6 4 3 4 4 2 6 10 3 8 12 5 7 10 12 14
12 14 14 19 21 21 20 19 18 17 7 1 2 3 4 6 7 7 6 6 7 7 4 4 7 9 6 6 9 8 8 7 6 6 4 4 4 3 6 5 11 11 8 6 11 12 15
11 18 14 24 23 22 21 20 18 15 3 1 2 3 3 4 4 6 6 4 5 5 9 5 2 5 4 7 9 9 7 6 4 3 1 4 5 2 6 6 6 8 9 9 10 10 14
11 19 15 18 19 23 22 19 18 16 6 1 3 3 2 4 5 4 3 1 3 6 8 5 4 2 6 7 6 9 8 4 6 7 2 4 4 6 3 5 4 9 9 11 8 11 19
16 19 16 15 21 20 20 19 17 15 7 3 3 4 2 3 3 3 0 3 2 2 2 4 2 6 2 7 7 6 5 2 5 4 5 6 5 7 5 5 2 8 13 12 7 9 20
21 20 19 18 18 20 20 21 19 16 8 2 3 4 3 3 1 1 1 2 0 2 2 5 5 4 5 4 3 3 3 3 3 2 2 5 4 5 3 6 6 14 2 9 10 12 9
17 20 18 18 17 20 21 21 19 13 8 2 2 2 2 4 5 2 4 6 5 5 6 2 4 3 4 1 2 2 2 4 3 4 3 4 4 5 5 7 7 8 8 8 9 7 13
Wind_Direction
251 249 249 250 258 280 302 316 322 320 324 326 328 328 326 324 321 317 314 317 318 315 313 312 293 261 251 246 79 103 132 142 186 183 183 186 188 206 213 207 195 239 196 228 266 275 248
256 252 247 248 253 257 278 292 297 311 319 324 325 323 323 322 320 318 315 317 315 314 312 305 245 229 266 257 78 135 159 174 189 196 183 191 200 219 242 215 215 203 248 241 270 270 223
251 253 252 250 238 238 250 269 289 300 311 319 321 321 321 322 321 319 316 319 313 314 305 256 215 261 260 1 59 154 167 182 187 206 184 185 193 220 183 188 217 237 230 223 226 256 227
248 249 249 246 242 247 252 260 282 299 309 316 322 324 324 323 321 318 315 315 311 304 284 202 225 258 301 93 99 173 182 179 196 195 265 196 247 274 246 63 199 221 234 219 140 184 169
241 242 248 242 242 242 252 263 271 291 310 319 325 326 325 322 321 318 316 314 306 296 243 213 239 265 138 134 198 168 193 181 171 177 178 165 231 259 188 219 208 209 217 220 148 193 172
237 237 237 239 239 233 240 249 267 283 307 320 327 325 324 319 321 319 315 290 168 193 203 231 259 234 179 141 117 148 192 179 172 162 172 209 213 215 218 222 219 207 225 205 217 180 215
230 234 232 234 229 231 231 238 253 276 305 320 327 324 322 318 322 319 317 230 293 179 326 293 328 303 261 223 187 194 175 189 164 184 193 203 216 215 210 221 291 300 240 216 206 160 210
228 225 225 228 229 223 226 233 241 262 292 313 324 322 321 319 325 307 301 55 51 328 301 284 255 262 266 289 214 172 180 194 195 193 201 184 228 193 288 222 239 246 237 230 130 203 218
223 220 220 221 223 220 220 226 234 247 272 300 319 322 324 319 322 301 11 54 339 294 260 255 203 234 202 193 211 166 192 204 203 204 203 234 138 161 207 200 228 227 239 224 245 176 220
220 216 214 214 214 213 217 221 224 232 253 286 314 325 331 318 298 347 71 342 329 221 266 136 175 146 169 207 202 154 200 193 192 212 201 237 161 186 209 226 228 237 218 252 232 216 219
215 213 209 210 206 209 210 213 218 225 237 264 293 316 336 349 320 301 1 326 329 226 246 110 115 111 168 210 120 169 186 210 203 151 217 115 193 215 223 224 203 252 209 231 232 237 259
209 204 205 203 208 201 207 208 213 218 232 252 279 304 319 214 261 301 315 308 231 232 220 137 134 176 171 191 168 127 177 215 353 188 223 122 192 213 219 166 216 134 194 196 222 241 235
214 203 199 197 198 203 197 203 208 214 221 243 274 288 284 310 320 326 309 258 228 250 110 145 156 191 193 177 172 178 181 189 200 201 203 190 202 211 246 221 182 219 216 217 211 217 243
239 196 187 195 202 190 190 199 199 211 219 237 270 291 181 272 297 303 256 226 237 325 239 71 249 188 199 165 170 173 192 196 220 240 167 237 171 196 187 240 237 203 223 257 249 247 245
240 189 182 188 201 181 185 191 196 193 211 244 283 214 239 157 276 238 239 222 222 252 358 311 220 192 164 174 194 182 205 223 183 212 256 178 131 147 207 209 230 187 230 271 280 264 271
225 187 182 176 190 185 183 182 198 185 197 226 255 238 167 145 211 219 231 243 257 274 323 273 256 277 173 168 174 201 175 142 172 215 253 113 228 177 137 220 222 259 16 227 224 263 257
220 197 176 171 178 178 182 178 186 188 180 208 234 225 78 186 205 211 232 223 244 242 281 291 293 220 153 162 194 177 147 119 194 163 215 221 260 148 213 213 185 177 221 232 303 304 288
282 170 169 169 174 177 180 174 179 186 154 211 231 215 119 179 214 212 227 211 256 226 216 269 285 283 304 210 158 148 152 69 116 186 183 109 272 253 235 71 328 290 307 302 264 237 238
173 177 168 170 175 179 175 171 181 179 188 182 214 112 165 251 232 206 180 223 231 208 214 237 256 303 20 142 138 131 124 82 99 200 140 152 179 239 164 165 161 155 55 216 352 282 263
286 212 187 172 175 179 171 172 178 182 195 255 196 172 151 214 326 285 199 207 206 205 249 260 295 257 238 178 152 153 129 93 85 83 11 284 223 300 319 21 359 272 245 269 274 275 302
328 233 161 164 175 176 170 172 175 172 190 252 220 164 16 176 196 213 213 179 202 195 219 217 231 239 243 182 156 141 129 138 140 145 167 277 248 259 265 271 264 280 284 280 260 265 272
254 249 197 179 171 174 171 171 172 161 175 239 181 191 182 137 163 202 179 193 211 196 225 195 233 215 217 239 215 164 155 166 154 159 169 119 231 263 270 250 254 264 271 278 277 275 273
242 226 221 174 171 172 169 167 163 170 212 179 119 122 274 130 176 204 184 209 201 208 214 261 201 217 212 198 33 61 55 78 119 183 168 229 206 245 264 151 292 261 6 331 326 312 328
220 220 213 191 173 167 170 167 168 182 229 335 127 218 239 162 217 199 181 207 233 218 268 173 225 232 75 133 135 110 103 110 115 79 353 198 245 276 282 274 248 63 30 26 332 297 15
252 201 207 166 169 163 167 168 171 170 209 261 137 265 232 203 217 190 203 229 229 206 214 224 114 24 196 178 154 144 159 175 125 51 86 295 251 226 269 272 330 131 42 2 344 331 9
213 185 178 162 160 163 163 165 165 165 177 249 92 310 287 282 185 32 217 304 227 173 158 138 98 126 189 210 198 207 195 199 165 150 133 161 253 260 214 280 276 67 8 343 306 243 7
194 179 174 169 157 159 163 163 160 160 173 224 98 276 310 268 94 283 327 23 298 238 151 129 99 159 231 200 195 199 162 323 205 220 176 196 228 244 209 270 254 18 337 319 268 0 335
174 172 169 168 164 162 165 164 160 166 152 248 82 31 324 281 91 290 34 26 309 328 284 90 191 175 182 203 222 133 210 129 222 41 257 252 262 198 247 252 236 6 1 341 345 328 333
157 166 165 174 173 171 162 155 155 143 147 256 102 112 299 273 13 319 299 299 299 357 326 83 45 77 37 149 160 128 162 179 252 206 182 241 334 355 327 33 54 48 47 22 28 15 353